Погода в Дашогузе

Погода в Дашогузе : погода сейчас, прогноз погоды и архив. Всё, что Вы хотите узнать о погоде в Дашогузе!

Поиск расширенной информации на нашем сайте:

Другие новости

Новости СМИ2

Главная страница сайта

Новости сайта

03.07.2017

Напоминаем, что на нашем специализированном сайте Метеоцентр.Азия вы можете получить высокодетализированные автоматические прогнозы погоды по пунктам России, СНГ и мира в авиационном формате (включающие направление и скорость ветра, видимость, явления погоды, количество и форму облачности, нижнюю и верхнюю границу облачности).


Погода в Дашогузе - сегодня

Время (UTC), дата Ветер
(°,м/с) 
Видим.   Явления Облачность Т
(°С)
Тd
(°С)
f(%) Тe
(°С)
Pmin
(гПа)
dP
(гПа)
Po
(мм)
O2
(г/м3)
Тmin Tmax R s Состояние
почвы
21 19.11.17 110 (В) 10 км    ясно 
+0.8 -6.5 58 -2  1026.8  -0.9  762  307           
00 20.11.17 100 (В) 10 км    ясно 
-1 -7.6 61 -4  1026.3  -0.6  762  309           
03 20.11.17 110 (В) 10 км    3/0 верхняя 
[Ci fib]
-1.7 -7.8 63 -4  1026.1  -0.2  762  310           
06 20.11.17 120 (ЮВ) 10 км    3/0 верхняя 
[Ci fib]
+4.5 -3.6 56 +2  1025.7  -0.1  761  302  -2         
09 20.11.17 110 (В) 10 км    3/0 верхняя 
[Ci fib]
+11.5 -0.9 42 +10  1023  -2.5  760  294           
12 20.11.17 090 (В) 10 км    4/0 верхняя 
[Ci sp]
+12.1 -1.2 40 +11  1021.9  -1.1  759  293           
15 20.11.17 100 (В) 10 км    4/0 верхняя 
[Ci sp]
+5.8 -2.9 54 +3  1021.8  -0.3  759  300    +13.6       
18 20.11.17 120 (ЮВ) 10 км    8/0 верхняя 
[Ci]
+5.4 -2.4 57 +3  1021  -0.8  758  300    +13.6       
21 20.11.17 120 (ЮВ) 10 км    8/0 верхняя 
[Ci]
+3.8 -1.8 67 +2  1020.1  -1  757  301           
00 21.11.17 120 (ЮВ) 10 км    8/0 верхняя 
[Ci]
+2.6 -2.4 70 +1  1019.4  -0.6  757  302           
03 21.11.17 110 (В) 10 км    5/0 верхняя 
[Ci]
+2.3 -2 73 1019  -0.5  756  302           
06 21.11.17 140 (ЮВ) 10 км    3/0 средняя 
[Ac trans]
+9.5 -0.2 51 +8  1018.4  -0.3  756  294  +2.2         
09 21.11.17 130 (ЮВ) 10 км    5/0 верхняя 
[Ci fib]
+16.5 -0.7 31 +16  1015.3  -2.8  754  287           
12 21.11.17 120 (ЮВ) 10 км    8/0 верхняя 
[Ci fib]
+16.7 -0.7 31 +16  1014.1  -1.2  753  286           
15 21.11.17 120 (ЮВ) 10 км    3/0 средняя 
[Ac trans]
+9.5 +0.4 53 +8  1013.7  -0.6  753  293    +18.1       
18 21.11.17 130 (ЮВ) 10 км    4/0 средняя 
[Ac lent]
+9.5 -0.2 51 +8  1012.9  -0.8  752  293    +18.1       
21 21.11.17 120 (ЮВ) 10 км    4/0 средняя 
[Ac lent]
+6.9 -2.4 51 +5  1011.2  -1.8  751  295           
00 22.11.17 110 (В) 10 км    4/0 средняя 
[Ac lent]
+4.8 -2.9 57 +3  1010.4  -0.9  750  297           
03 22.11.17 120 (ЮВ) 10 км    10/0 средняя, верхняя 
[Ac lent|Ci sp]
+5.6 -2.5 56 +3  1009.9  -0.5  750  296           
06 22.11.17 130 (ЮВ) 10 км    4/0 средняя 
[Ac trans]
+11.6 -1.7 40 +10  1009.2  -0.4  749  290  +4.6         
09 22.11.17 140 (ЮВ) 10 км    8/0 верхняя 
[Ci fib]
+17.8 -1.4 27 +18  1006.5  -2.5  748  283           
12 22.11.17 110 (В) 4000 м  позёмок  10/0 верхняя 
[Cs]
+16.5 -2.7 27 +16  1005.9  -0.6  747  284           
15 22.11.17 120 (ЮВ) 4000 м  мгла  9/0 средняя 
[Ac trans]
+12.8 -1.7 37 +12  1005.4  -0.6  747  288    +18.8       
18 22.11.17 120 (ЮВ) 10 км    10/0 средняя 
[Ac As]
+11.4 -2.2 39 +11  1005.5  747  289    +18.8       
21 22.11.17 нст () 10 км    10/0 средняя 
[Ac As]
+11.5 -0.9 42 +13  1005.7  0.2  747  289           
Время (UTC), дата Ветер
(°,м/с) 
Видим.   Явления Облачность Т
(°С)
Тd
(°С)
f(%) Тe
(°С)
Pmin
(гПа)
dP
(гПа)
Po
(мм)
O2
(г/м3)
Тmin Tmax R s Состояние
почвы

Для получения пояснительной информации подведите курсор к названию столбца.

ПОГОДА в Дашогузе - архив

Всё, что Вы хотите узнать о погоде в Дашогузе - удобно и подробно!

Выберите нужную дату (начиная с 1 января 2015* года) и нажмите кнопку "Найти".
Будут отображены архивные сводки погоды по пункту Дашогуз, начиная с указанной даты.


Отображать данные в формате CSV (для использования в таблицах Excel)


Внимание! Наш архив погоды предназначен исключительно для личного некоммерческого использования в познавательных целях. Если Вам необходимы официальные справки о состоянии погоды (для производственных, юридических, коммерческих и т.п. целей), обращайтесь в органы Росгидромета.

*Примечание: данная дата относится к архиву по метеостанциям СССР (Россия, СНГ, Балтия).
Архив по метеостанциям Зарубежной Европы и Азии (кроме Китая) хранится 10 дней, по другим регионам земного шара (Китай, Африка, Америка, Австралия, Океания) - 1 день.

Дашогуз - район местоположения метеостанции


Название, широта, долгота, высота метеостанции:
Дашогуз (Ташауз) 41.8°ш. 59.8°д. 82 м над ур. моря [Туркменистан]

Дополнительная информация

В oтличие oт бoльшинства пoгoдных сайтoв мы публикуем пoдрoбную метеoинфoрмацию в детальнoм прoфессиoнальнoм фoрмате.

Характеристики температуры и влажнoсти вoздуха измеряются на высoте 2 м в тени вдали oт зданий и деревьев.
Скoрoсть ветра измеряется на высoте 10 м (на урoвне рoста челoвека скoрoсть ветра ниже в 1.5-2 раза). Если метеoстанция нахoдится в гoрoде или в лесу, тo скoрoсть ветра занижена на 2-4 м/с пo сравнению с oткрытым местoм. Скoрoсть ветра над акватoриями крупных рек и oзёр, а также на вершинах хoлмoв на 2-5 м/с выше, чем в oбычных услoвиях.
Атмoсфернoе давление в разных тoчках местнoсти мoжет значительнo oтличаться oт давления на метеoстанции, в зависимoсти oт услoвий рельефа (при пoдъёме на 10 м давление пoнижается примернo на 1 мм рт.ст.).